This demonstration page uses our WeatherBlox Daily Observations layout. Learn more.

Left ArrowRight Arrow

39.08367, -84.50855

Hourly Observations for October 4, 2022

Temp ( °F °C ) Dew Point ( °F °C ) Humidity (%) Winds ( mph kmh ) Pressure ( in mb ) Visibility ( mi km ) Precip ( " mm )
12:53 am 00:53 Clear 45 7.2 44 6.7 97 97 N 3 6 30.26 1025 10 16 0.00 0.00
1:53 am 01:53 Clear 42 5.6 41 5 96 96 Calm 30.26 1025 8 13 0.00 0.00
2:18 am 02:18 Clear with Mist and Fog 41 5 41 5 100 100 Calm 30.28 1025 2 3 0.00 0.00
2:28 am 02:28 Clear 42 5.6 41 5 96 96 Calm 30.28 1025 10 16 0.00 0.00
2:35 am 02:35 Clear with Mist and Fog 42 5.6 41 5 96 96 Calm 30.28 1025 1 1 0.00 0.00
2:43 am 02:43 Clear with Mist and Fog 42 5.6 41 5 96 96 Calm 30.28 1025 3 5 0.00 0.00
2:53 am 02:53 Clear 40 4.4 40 4.4 100 100 Calm 30.26 1025 10 16 0.00 0.00
3:11 am 03:11 Clear with Mist and Fog 41 5 40 4.4 96 96 Calm 30.28 1025 2 3 0.00 0.00
3:24 am 03:24 Clear 41 5 40 4.4 96 96 Calm 30.28 1025 10 16 0.00 0.00
3:53 am 03:53 Clear 40 4.4 39 3.9 97 97 Calm 30.25 1024 10 16 0.00 0.00
4:44 am 04:44 Clear with Mist and Fog 39 3.9 38 3.3 96 96 NE 3 6 30.26 1025 1 1 0.00 0.00
4:53 am 04:53 Clear with Mist and Fog 38 3.3 38 3.3 100 100 NE 3 6 30.24 1024 4 6 0.00 0.00
5:29 am 05:29 Clear with Mist and Fog 38 3.3 37 2.8 97 97 Calm 30.27 1025 2 3 0.00 0.00
5:45 am 05:45 Clear with Mist and Fog 39 3.9 38 3.3 96 96 Calm 30.27 1025 3 5 0.00 0.00
5:53 am 05:53 Clear 39 3.9 37 2.8 93 93 Calm 30.24 1024 10 16 0.00 0.00
6:06 am 06:06 Clear with Mist and Fog 39 3.9 38 3.3 96 96 Calm 30.27 1025 3 4 0.00 0.00
6:25 am 06:25 Clear with Mist and Fog 39 3.9 38 3.3 96 96 Calm 30.27 1025 5 8 0.00 0.00
6:53 am 06:53 Clear with Mist and Fog 39 3.9 38 3.3 96 96 Calm 30.26 1025 6 10 0.00 0.00
7:53 am 07:53 Sunny with Mist and Fog 36 2.2 36 2.2 100 100 NE 3 6 30.26 1025 6 10 0.00 0.00
8:53 am 08:53 Sunny 43 6.1 42 5.6 97 97 Calm 30.26 1025 7 11 0.00 0.00
9:53 am 09:53 Sunny 50 10 46 7.8 86 86 ENE 3 6 30.27 1025 8 13 0.00 0.00
10:53 am 10:53 Sunny 55 12.8 46 7.8 72 72 E 3 6 30.26 1025 10 16 0.00 0.00
11:53 am 11:53 Sunny 61 16.1 42 5.6 50 50 NNE 5 7 30.24 1024 10 16 0.00 0.00
12:53 pm 12:53 Sunny 65 18.3 38 3.3 37 37 VRB 5 7 30.22 1024 10 16 0.00 0.00
1:53 pm 13:53 Sunny 68 20 36 2.2 31 31 VRB 5 7 30.20 1023 10 16 0.00 0.00
2:53 pm 14:53 Sunny 70 21.1 36 2.2 29 29 N 3 6 30.18 1022 10 16 0.00 0.00
3:53 pm 15:53 Sunny 72 22.2 34 1.1 25 25 NNE 7 11 30.16 1021 10 16 0.00 0.00
4:53 pm 16:53 Sunny 72 22.2 37 2.8 28 28 N 7 11 30.14 1021 10 16 0.00 0.00
5:53 pm 17:53 Sunny 71 21.7 33 0.6 25 25 N 9 15 30.13 1020 10 16 0.00 0.00
6:53 pm 18:53 Sunny 64 17.8 46 7.8 52 52 Calm 30.14 1021 10 16 0.00 0.00
7:53 pm 19:53 Clear 55 12.8 45 7.2 69 69 Calm 30.14 1021 10 16 0.00 0.00
8:53 pm 20:53 Clear 51 10.6 45 7.2 79 79 Calm 30.16 1021 10 16 0.00 0.00
9:53 pm 21:53 Clear 49 9.4 44 6.7 83 83 NE 3 6 30.16 1021 10 16 0.00 0.00
10:53 pm 22:53 Clear 46 7.8 44 6.7 93 93 Calm 30.16 1022 10 16 0.00 0.00
11:53 pm 23:53 Clear 46 7.8 45 7.2 96 96 Calm 30.17 1022 8 13 0.00 0.00

Powered by AerisWeather